| time (UTC) | temp F | wind direction | speed MPH | gust MPH | rain 1hr in | rain 24hr in | rain mn in | humidity % | barometer mb |
| 20260902230413 | 54 | 338 | 0.0 | 0.0 | 0.00 | 0.00 | 0.00 | 82 | 1021.5 |
| 20260902225910 | 54 | 338 | 0.0 | 0.0 | 0.00 | 0.00 | 0.00 | 82 | 1021.6 |
| 20260902225408 | 55 | 338 | 0.0 | 0.0 | 0.00 | 0.00 | 0.00 | 81 | 1021.5 |
| 20260902224908 | 55 | 338 | 0.0 | 0.0 | 0.00 | 0.00 | 0.00 | 80 | 1021.5 |
| 20260902224408 | 55 | 338 | 0.0 | 0.0 | 0.00 | 0.00 | 0.00 | 80 | 1021.5 |
| 20260902223908 | 55 | 338 | 0.0 | 0.0 | 0.00 | 0.00 | 0.00 | 80 | 1021.5 |
| 20260902223407 | 56 | 338 | 0.0 | 0.0 | 0.00 | 0.00 | 0.00 | 80 | 1021.5 |
| 20260902222906 | 56 | 338 | 0.0 | 0.0 | 0.00 | 0.00 | 0.00 | 79 | 1021.6 |
| 20260902222404 | 56 | 338 | 0.0 | 0.0 | 0.00 | 0.00 | 0.00 | 79 | 1021.6 |
| 20260902221902 | 56 | 338 | 0.0 | 0.0 | 0.00 | 0.00 | 0.00 | 79 | 1021.5 |
| 20260902221402 | 56 | 338 | 0.0 | 0.0 | 0.00 | 0.00 | 0.00 | 79 | 1021.4 |
| 20260902220904 | 57 | 338 | 0.0 | 0.0 | 0.00 | 0.00 | 0.00 | 78 | 1021.6 |
| 20260902220404 | 57 | 338 | 0.0 | 0.0 | 0.00 | 0.00 | 0.00 | 77 | 1021.5 |
| 20260902215859 | 57 | 338 | 0.0 | 0.0 | 0.00 | 0.00 | 0.00 | 77 | 1021.5 |
| 20260902215401 | 57 | 338 | 0.0 | 0.0 | 0.00 | 0.00 | 0.00 | 78 | 1021.5 |
| 20260902214903 | 58 | 338 | 0.0 | 0.0 | 0.00 | 0.00 | 0.00 | 77 | 1021.5 |
| 20260902214355 | 58 | 338 | 0.0 | 0.0 | 0.00 | 0.00 | 0.00 | 77 | 1021.5 |
| 20260902213853 | 58 | 338 | 0.0 | 0.0 | 0.00 | 0.00 | 0.00 | 78 | 1021.5 |
| 20260902213353 | 59 | 338 | 0.0 | 0.0 | 0.00 | 0.00 | 0.00 | 77 | 1021.4 |
| 20260902212851 | 59 | 338 | 0.0 | 0.0 | 0.00 | 0.00 | 0.00 | 77 | 1021.4 |
| 20260902212351 | 59 | 338 | 0.0 | 0.0 | 0.00 | 0.00 | 0.00 | 76 | 1021.5 |
| 20260902211900 | 59 | 338 | 0.0 | 0.0 | 0.00 | 0.00 | 0.00 | 75 | 1021.5 |
| 20260902211350 | 60 | 338 | 0.0 | 0.0 | 0.00 | 0.00 | 0.00 | 75 | 1021.4 |
| 20260902210846 | 60 | 338 | 0.0 | 0.0 | 0.00 | 0.00 | 0.00 | 75 | 1021.4 |
| 20260902210345 | 60 | 338 | 0.0 | 0.0 | 0.00 | 0.00 | 0.00 | 75 | 1021.3 |
| 20260902205843 | 60 | 338 | 0.0 | 0.0 | 0.00 | 0.00 | 0.00 | 75 | 1021.3 |
| 20260902205340 | 60 | 338 | 0.0 | 0.0 | 0.00 | 0.00 | 0.00 | 74 | 1021.2 |
| 20260902204838 | 61 | 338 | 0.0 | 0.0 | 0.00 | 0.00 | 0.00 | 73 | 1021.3 |
| 20260902204336 | 61 | 338 | 0.0 | 0.0 | 0.00 | 0.00 | 0.00 | 74 | 1021.3 |
| 20260902203836 | 61 | 338 | 0.0 | 0.0 | 0.00 | 0.00 | 0.00 | 72 | 1021.2 |
| 20260902203332 | 61 | 338 | 0.0 | 0.0 | 0.00 | 0.00 | 0.00 | 72 | 1021.2 |
| 20260902202829 | 61 | 338 | 0.0 | 0.0 | 0.00 | 0.00 | 0.00 | 71 | 1021.2 |
| 20260902202331 | 62 | 338 | 0.0 | 0.0 | 0.00 | 0.00 | 0.00 | 71 | 1021.2 |
| 20260902201830 | 62 | 338 | 0.0 | 0.0 | 0.00 | 0.00 | 0.00 | 70 | 1021.2 |
| 20260902201331 | 62 | 338 | 0.0 | 0.0 | 0.00 | 0.00 | 0.00 | 69 | 1021.3 |
| 20260902200831 | 62 | 338 | 0.0 | 0.0 | 0.00 | 0.00 | 0.00 | 69 | 1021.3 |
| 20260902200331 | 62 | 338 | 0.0 | 0.0 | 0.00 | 0.00 | 0.00 | 69 | 1021.2 |
| 20260902195832 | 62 | 338 | 0.0 | 0.0 | 0.00 | 0.00 | 0.00 | 68 | 1021.2 |
| 20260902195329 | 62 | 338 | 0.0 | 0.0 | 0.00 | 0.00 | 0.00 | 68 | 1021.2 |
| 20260902194830 | 63 | 338 | 0.0 | 0.0 | 0.00 | 0.00 | 0.00 | 67 | 1021.1 |
| 20260902194331 | 63 | 338 | 0.0 | 0.0 | 0.00 | 0.00 | 0.00 | 67 | 1021.2 |
| 20260902193831 | 63 | 338 | 0.0 | 0.0 | 0.00 | 0.00 | 0.00 | 67 | 1021.2 |
| 20260902193328 | 63 | 338 | 0.0 | 0.0 | 0.00 | 0.00 | 0.00 | 66 | 1021.2 |
| 20260902192827 | 63 | 338 | 0.0 | 0.0 | 0.00 | 0.00 | 0.00 | 66 | 1021.2 |
| 20260902192326 | 64 | 338 | 0.0 | 0.0 | 0.00 | 0.00 | 0.00 | 66 | 1021.2 |
| 20260902191824 | 64 | 338 | 0.0 | 0.0 | 0.00 | 0.00 | 0.00 | 66 | 1021.1 |
| 20260902191323 | 64 | 338 | 0.0 | 0.0 | 0.00 | 0.00 | 0.00 | 65 | 1021.1 |
| 20260902190822 | 64 | 338 | 0.0 | 0.0 | 0.00 | 0.00 | 0.00 | 65 | 1021.1 |
| 20260902190321 | 64 | 338 | 0.0 | 0.0 | 0.00 | 0.00 | 0.00 | 64 | 1021.1 |
| 20260902185820 | 65 | 338 | 0.0 | 1.0 | 0.00 | 0.00 | 0.00 | 63 | 1021.1 |
| 20260902185321 | 65 | 338 | 1.0 | 2.0 | 0.00 | 0.00 | 0.00 | 63 | 1021.0 |
| 20260902184818 | 65 | 338 | 1.0 | 2.0 | 0.00 | 0.00 | 0.00 | 63 | 1021.0 |
| 20260902184319 | 65 | 338 | 1.0 | 2.0 | 0.00 | 0.00 | 0.00 | 63 | 1020.9 |
| 20260902183816 | 66 | 338 | 0.0 | 1.0 | 0.00 | 0.00 | 0.00 | 62 | 1020.9 |
| 20260902183308 | 66 | 338 | 0.0 | 1.0 | 0.00 | 0.00 | 0.00 | 62 | 1020.9 |
| 20260902182806 | 67 | 338 | 0.0 | 0.0 | 0.00 | 0.00 | 0.00 | 63 | 1020.9 |
| 20260902182306 | 67 | 338 | 0.0 | 1.0 | 0.00 | 0.00 | 0.00 | 64 | 1020.9 |
| 20260902181804 | 67 | 338 | 0.0 | 1.0 | 0.00 | 0.00 | 0.00 | 65 | 1020.8 |
| 20260902181304 | 67 | 338 | 0.0 | 1.0 | 0.00 | 0.00 | 0.00 | 63 | 1020.7 |
| 20260902180802 | 68 | 338 | 0.0 | 1.0 | 0.00 | 0.00 | 0.00 | 61 | 1020.7 |
| 20260902180302 | 68 | 338 | 0.0 | 2.0 | 0.00 | 0.00 | 0.00 | 61 | 1020.7 |
| 20260902175801 | 69 | 338 | 1.0 | 3.0 | 0.00 | 0.00 | 0.00 | 60 | 1020.6 |
| 20260902175301 | 69 | 338 | 2.0 | 3.0 | 0.00 | 0.00 | 0.00 | 58 | 1020.5 |
| 20260902174800 | 69 | 338 | 3.0 | 3.0 | 0.00 | 0.00 | 0.00 | 54 | 1020.5 |
| 20260902174304 | 70 | 338 | 3.0 | 5.0 | 0.00 | 0.00 | 0.00 | 54 | 1020.5 |
| 20260902173802 | 70 | 338 | 3.0 | 5.0 | 0.00 | 0.00 | 0.00 | 54 | 1020.5 |
| 20260902173301 | 70 | 337 | 3.0 | 4.0 | 0.00 | 0.00 | 0.00 | 53 | 1020.5 |
| 20260902172802 | 70 | 336 | 3.0 | 4.0 | 0.00 | 0.00 | 0.00 | 53 | 1020.4 |
| 20260902172300 | 71 | 335 | 3.0 | 6.0 | 0.00 | 0.00 | 0.00 | 53 | 1020.4 |
| 20260902171802 | 71 | 331 | 4.0 | 6.0 | 0.00 | 0.00 | 0.00 | 52 | 1020.4 |
| 20260902171301 | 71 | 332 | 4.0 | 6.0 | 0.00 | 0.00 | 0.00 | 50 | 1020.3 |
| 20260902170758 | 72 | 339 | 3.0 | 6.0 | 0.00 | 0.00 | 0.00 | 51 | 1020.3 |
| 20260902170256 | 72 | 331 | 2.0 | 4.0 | 0.00 | 0.00 | 0.00 | 51 | 1020.3 |
| 20260902165757 | 73 | 306 | 2.0 | 3.0 | 0.00 | 0.00 | 0.00 | 49 | 1020.2 |
| 20260902165255 | 73 | 306 | 2.0 | 3.0 | 0.00 | 0.00 | 0.00 | 48 | 1020.3 |
| 20260902164753 | 73 | 304 | 1.0 | 3.0 | 0.00 | 0.00 | 0.00 | 48 | 1020.3 |
| 20260902164251 | 74 | 304 | 1.0 | 4.0 | 0.00 | 0.00 | 0.00 | 47 | 1020.2 |
| 20260902163749 | 74 | 304 | 2.0 | 4.0 | 0.00 | 0.00 | 0.00 | 47 | 1020.2 |
| 20260902163248 | 74 | 298 | 2.0 | 6.0 | 0.00 | 0.00 | 0.00 | 47 | 1020.2 |
| 20260902162749 | 75 | 294 | 3.0 | 6.0 | 0.00 | 0.00 | 0.00 | 45 | 1020.3 |
| 20260902162246 | 75 | 309 | 3.0 | 6.0 | 0.00 | 0.00 | 0.00 | 45 | 1020.3 |
| 20260902161745 | 76 | 289 | 3.0 | 6.0 | 0.00 | 0.00 | 0.00 | 44 | 1020.2 |
| 20260902161245 | 76 | 280 | 4.0 | 7.0 | 0.00 | 0.00 | 0.00 | 43 | 1020.2 |
| 20260902160745 | 77 | 281 | 4.0 | 7.0 | 0.00 | 0.00 | 0.00 | 43 | 1020.2 |
| 20260902160243 | 77 | 339 | 4.0 | 9.0 | 0.00 | 0.00 | 0.00 | 42 | 1020.2 |
| 20260902155741 | 78 | 277 | 4.0 | 9.0 | 0.00 | 0.00 | 0.00 | 41 | 1020.2 |
| 20260902155242 | 78 | 308 | 4.0 | 8.0 | 0.00 | 0.00 | 0.00 | 41 | 1020.2 |
| 20260902154741 | 78 | 286 | 3.0 | 7.0 | 0.00 | 0.00 | 0.00 | 40 | 1020.2 |
| 20260902154241 | 78 | 255 | 2.0 | 7.0 | 0.00 | 0.00 | 0.00 | 41 | 1020.2 |
| 20260902153740 | 78 | 258 | 3.0 | 7.0 | 0.00 | 0.00 | 0.00 | 42 | 1020.2 |
| 20260902153232 | 77 | 237 | 4.0 | 9.0 | 0.00 | 0.00 | 0.00 | 42 | 1020.3 |
| 20260902152733 | 77 | 274 | 5.0 | 9.0 | 0.00 | 0.00 | 0.00 | 42 | 1020.3 |
| 20260902152232 | 76 | 276 | 4.0 | 8.0 | 0.00 | 0.00 | 0.00 | 43 | 1020.3 |
| 20260902151730 | 76 | 330 | 4.0 | 8.0 | 0.00 | 0.00 | 0.00 | 42 | 1020.3 |
| 20260902151231 | 76 | 318 | 4.0 | 8.0 | 0.00 | 0.00 | 0.00 | 44 | 1020.4 |
| 20260902150730 | 75 | 5 | 5.0 | 9.0 | 0.00 | 0.00 | 0.00 | 44 | 1020.3 |
| 20260902150231 | 75 | 24 | 6.0 | 9.0 | 0.00 | 0.00 | 0.00 | 44 | 1020.3 |
| 20260902145731 | 75 | 317 | 5.0 | 9.0 | 0.00 | 0.00 | 0.00 | 44 | 1020.4 |
| 20260902145231 | 76 | 344 | 5.0 | 12.0 | 0.00 | 0.00 | 0.00 | 44 | 1020.4 |
| 20260902144733 | 76 | 323 | 4.0 | 12.0 | 0.00 | 0.00 | 0.00 | 43 | 1020.4 |
| 20260902144231 | 76 | 336 | 3.0 | 5.0 | 0.00 | 0.00 | 0.00 | 42 | 1020.5 |
| 20260902143732 | 76 | 347 | 3.0 | 6.0 | 0.00 | 0.00 | 0.00 | 42 | 1020.4 |
| 20260902143233 | 76 | 355 | 3.0 | 6.0 | 0.00 | 0.00 | 0.00 | 42 | 1020.5 |
| 20260902142730 | 77 | 351 | 3.0 | 6.0 | 0.00 | 0.00 | 0.00 | 42 | 1020.6 |
| 20260902142230 | 77 | 285 | 5.0 | 10.0 | 0.00 | 0.00 | 0.00 | 42 | 1020.5 |
| 20260902141732 | 77 | 302 | 4.0 | 10.0 | 0.00 | 0.00 | 0.00 | 42 | 1020.5 |
| 20260902141225 | 77 | 325 | 3.0 | 8.0 | 0.00 | 0.00 | 0.00 | 42 | 1020.5 |
| 20260902140723 | 77 | 326 | 4.0 | 6.0 | 0.00 | 0.00 | 0.00 | 42 | 1020.5 |
| 20260902140214 | 77 | 330 | 5.0 | 10.0 | 0.00 | 0.00 | 0.00 | 41 | 1020.6 |
| 20260902135716 | 77 | 333 | 5.0 | 10.0 | 0.00 | 0.00 | 0.00 | 41 | 1020.7 |
| 20260902135211 | 78 | 271 | 3.0 | 9.0 | 0.00 | 0.00 | 0.00 | 41 | 1020.7 |
| 20260902134710 | 78 | 262 | 3.0 | 8.0 | 0.00 | 0.00 | 0.00 | 40 | 1020.7 |
| 20260902134211 | 78 | 315 | 3.0 | 8.0 | 0.00 | 0.00 | 0.00 | 40 | 1020.7 |
| 20260902133708 | 78 | 280 | 3.0 | 7.0 | 0.00 | 0.00 | 0.00 | 42 | 1020.6 |
| 20260902133214 | 77 | 148 | 3.0 | 7.0 | 0.00 | 0.00 | 0.00 | 41 | 1020.7 |
| 20260902132708 | 77 | 140 | 2.0 | 6.0 | 0.00 | 0.00 | 0.00 | 42 | 1020.7 |
| 20260902132209 | 77 | 250 | 3.0 | 7.0 | 0.00 | 0.00 | 0.00 | 41 | 1020.8 |
| 20260902131712 | 76 | 255 | 4.0 | 8.0 | 0.00 | 0.00 | 0.00 | 43 | 1020.9 |
| 20260902131207 | 76 | 281 | 3.0 | 8.0 | 0.00 | 0.00 | 0.00 | 43 | 1021.0 |
| 20260902130707 | 76 | 277 | 3.0 | 7.0 | 0.00 | 0.00 | 0.00 | 42 | 1021.0 |
| 20260902130208 | 76 | 351 | 5.0 | 11.0 | 0.00 | 0.00 | 0.00 | 43 | 1021.0 |
| 20260902125706 | 76 | 330 | 4.0 | 11.0 | 0.00 | 0.00 | 0.00 | 42 | 1021.1 |
| 20260902125204 | 76 | 348 | 4.0 | 9.0 | 0.00 | 0.00 | 0.00 | 41 | 1021.1 |
| 20260902124705 | 76 | 355 | 5.0 | 9.0 | 0.00 | 0.00 | 0.00 | 41 | 1021.1 |
| 20260902124206 | 76 | 294 | 4.0 | 8.0 | 0.00 | 0.00 | 0.00 | 41 | 1021.2 |
| 20260902123703 | 76 | 317 | 5.0 | 9.0 | 0.00 | 0.00 | 0.00 | 41 | 1021.2 |
| 20260902123202 | 76 | 26 | 5.0 | 9.0 | 0.00 | 0.00 | 0.00 | 41 | 1021.2 |
| 20260902122702 | 76 | 345 | 5.0 | 9.0 | 0.00 | 0.00 | 0.00 | 43 | 1021.3 |
| 20260902122202 | 77 | 339 | 4.0 | 9.0 | 0.00 | 0.00 | 0.00 | 42 | 1021.3 |
| 20260902121704 | 77 | 301 | 4.0 | 11.0 | 0.00 | 0.00 | 0.00 | 41 | 1021.3 |
| 20260902121202 | 77 | 302 | 4.0 | 11.0 | 0.00 | 0.00 | 0.00 | 40 | 1021.4 |
| 20260902120703 | 77 | 312 | 3.0 | 7.0 | 0.00 | 0.00 | 0.00 | 40 | 1021.3 |
| 20260902120203 | 77 | 327 | 3.0 | 10.0 | 0.00 | 0.00 | 0.00 | 40 | 1021.4 |
| 20260902115702 | 77 | 281 | 5.0 | 11.0 | 0.00 | 0.00 | 0.00 | 40 | 1021.5 |
| 20260902115201 | 77 | 318 | 5.0 | 11.0 | 0.00 | 0.00 | 0.00 | 40 | 1021.6 |
| 20260902114702 | 78 | 324 | 5.0 | 11.0 | 0.00 | 0.00 | 0.00 | 39 | 1021.6 |
| 20260902114201 | 78 | 292 | 6.0 | 11.0 | 0.00 | 0.00 | 0.00 | 38 | 1021.6 |
| 20260902113703 | 78 | 312 | 6.0 | 11.0 | 0.00 | 0.00 | 0.00 | 37 | 1021.6 |
| 20260902113202 | 79 | 261 | 7.0 | 13.0 | 0.00 | 0.00 | 0.00 | 37 | 1021.7 |
| 20260902112702 | 79 | 248 | 6.0 | 13.0 | 0.00 | 0.00 | 0.00 | 37 | 1021.7 |
| 20260902112202 | 79 | 213 | 6.0 | 12.0 | 0.00 | 0.00 | 0.00 | 37 | 1021.8 |
| 20260902111658 | 78 | 211 | 5.0 | 12.0 | 0.00 | 0.00 | 0.00 | 38 | 1021.8 |
| 20260902111152 | 78 | 213 | 4.0 | 12.0 | 0.00 | 0.00 | 0.00 | 39 | 1021.7 |
| 20260902110654 | 78 | 204 | 4.0 | 12.0 | 0.00 | 0.00 | 0.00 | 40 | 1021.8 |
| 20260902110150 | 77 | 289 | 5.0 | 10.0 | 0.00 | 0.00 | 0.00 | 42 | 1022.0 |
| 20260902105650 | 77 | 279 | 5.0 | 10.0 | 0.00 | 0.00 | 0.00 | 40 | 1022.1 |
| 20260902105151 | 77 | 269 | 4.0 | 8.0 | 0.00 | 0.00 | 0.00 | 43 | 1022.1 |
| 20260902104650 | 78 | 314 | 5.0 | 11.0 | 0.00 | 0.00 | 0.00 | 42 | 1022.2 |
| 20260902104152 | 78 | 240 | 5.0 | 11.0 | 0.00 | 0.00 | 0.00 | 41 | 1022.1 |
| 20260902103650 | 78 | 346 | 4.0 | 10.0 | 0.00 | 0.00 | 0.00 | 41 | 1022.1 |
| 20260902103151 | 77 | 222 | 5.0 | 11.0 | 0.00 | 0.00 | 0.00 | 42 | 1022.2 |
| 20260902102651 | 77 | 282 | 6.0 | 11.0 | 0.00 | 0.00 | 0.00 | 41 | 1022.2 |
| 20260902102151 | 77 | 204 | 5.0 | 10.0 | 0.00 | 0.00 | 0.00 | 41 | 1022.2 |
| 20260902101651 | 77 | 274 | 5.0 | 10.0 | 0.00 | 0.00 | 0.00 | 42 | 1022.3 |
| 20260902101150 | 77 | 192 | 6.0 | 12.0 | 0.00 | 0.00 | 0.00 | 41 | 1022.3 |
| 20260902100652 | 76 | 271 | 5.0 | 12.0 | 0.00 | 0.00 | 0.00 | 42 | 1022.4 |
| 20260902100151 | 76 | 269 | 5.0 | 12.0 | 0.00 | 0.00 | 0.00 | 41 | 1022.4 |
| 20260902095646 | 76 | 227 | 6.0 | 12.0 | 0.00 | 0.00 | 0.00 | 41 | 1022.4 |
| 20260902095142 | 76 | 199 | 4.0 | 11.0 | 0.00 | 0.00 | 0.00 | 42 | 1022.4 |
| 20260902094638 | 76 | 270 | 4.0 | 8.0 | 0.00 | 0.00 | 0.00 | 42 | 1022.4 |
| 20260902094141 | 75 | 201 | 4.0 | 8.0 | 0.00 | 0.00 | 0.00 | 44 | 1022.5 |
| 20260902093637 | 75 | 258 | 5.0 | 9.0 | 0.00 | 0.00 | 0.00 | 45 | 1022.6 |
| 20260902093135 | 75 | 239 | 5.0 | 9.0 | 0.00 | 0.00 | 0.00 | 44 | 1022.5 |
| 20260902092637 | 75 | 252 | 5.0 | 10.0 | 0.00 | 0.00 | 0.00 | 44 | 1022.7 |
| 20260902092135 | 75 | 220 | 5.0 | 10.0 | 0.00 | 0.00 | 0.00 | 44 | 1022.7 |
| 20260902091632 | 75 | 232 | 4.0 | 10.0 | 0.00 | 0.00 | 0.00 | 45 | 1022.7 |
| 20260902091134 | 74 | 248 | 4.0 | 7.0 | 0.00 | 0.00 | 0.00 | 47 | 1022.6 |
| 20260902090632 | 74 | 208 | 3.0 | 7.0 | 0.00 | 0.00 | 0.00 | 46 | 1022.6 |
| 20260902090134 | 73 | 212 | 2.0 | 7.0 | 0.00 | 0.00 | 0.00 | 48 | 1022.6 |
| 20260902085630 | 73 | 211 | 3.0 | 7.0 | 0.00 | 0.00 | 0.00 | 47 | 1022.6 |
| 20260902085130 | 72 | 315 | 3.0 | 7.0 | 0.00 | 0.00 | 0.00 | 48 | 1022.7 |
| 20260902084630 | 72 | 327 | 3.0 | 6.0 | 0.00 | 0.00 | 0.00 | 49 | 1022.7 |
| 20260902084131 | 71 | 271 | 3.0 | 6.0 | 0.00 | 0.00 | 0.00 | 49 | 1022.8 |
| 20260902083629 | 71 | 229 | 3.0 | 6.0 | 0.00 | 0.00 | 0.00 | 52 | 1022.8 |
| 20260902083129 | 71 | 299 | 4.0 | 7.0 | 0.00 | 0.00 | 0.00 | 51 | 1022.8 |
| 20260902082619 | 70 | 246 | 3.0 | 7.0 | 0.00 | 0.00 | 0.00 | 52 | 1022.8 |
| 20260902082118 | 69 | 244 | 2.0 | 4.0 | 0.00 | 0.00 | 0.00 | 55 | 1022.9 |
| 20260902081620 | 69 | 322 | 2.0 | 5.0 | 0.00 | 0.00 | 0.00 | 55 | 1022.9 |
| 20260902081120 | 68 | 298 | 2.0 | 6.0 | 0.00 | 0.00 | 0.00 | 58 | 1022.9 |
| 20260902080618 | 68 | 304 | 2.0 | 6.0 | 0.00 | 0.00 | 0.00 | 59 | 1022.9 |
| 20260902080118 | 67 | 295 | 2.0 | 5.0 | 0.00 | 0.00 | 0.00 | 61 | 1022.9 |
| 20260902075618 | 67 | 280 | 2.0 | 5.0 | 0.00 | 0.00 | 0.00 | 62 | 1022.9 |
| 20260902075119 | 66 | 286 | 2.0 | 5.0 | 0.00 | 0.00 | 0.00 | 62 | 1022.8 |
| 20260902074616 | 66 | 257 | 1.0 | 4.0 | 0.00 | 0.00 | 0.00 | 64 | 1022.8 |
| 20260902074117 | 65 | 254 | 1.0 | 4.0 | 0.00 | 0.00 | 0.00 | 65 | 1022.7 |
| 20260902073616 | 65 | 238 | 1.0 | 4.0 | 0.00 | 0.00 | 0.00 | 67 | 1022.8 |
| 20260902073116 | 65 | 268 | 2.0 | 4.0 | 0.00 | 0.00 | 0.00 | 67 | 1022.8 |
| 20260902072616 | 64 | 264 | 1.0 | 3.0 | 0.00 | 0.00 | 0.00 | 69 | 1022.7 |
| 20260902072116 | 63 | 264 | 1.0 | 4.0 | 0.00 | 0.00 | 0.00 | 70 | 1022.8 |
| 20260902071618 | 63 | 272 | 2.0 | 4.0 | 0.00 | 0.00 | 0.00 | 71 | 1022.7 |
| 20260902071112 | 62 | 273 | 1.0 | 3.0 | 0.00 | 0.00 | 0.00 | 72 | 1022.7 |
| 20260902070611 | 62 | 273 | 1.0 | 4.0 | 0.00 | 0.00 | 0.00 | 74 | 1022.7 |
| 20260902070113 | 61 | 262 | 2.0 | 4.0 | 0.00 | 0.00 | 0.00 | 75 | 1022.7 |
| 20260902065608 | 60 | 263 | 1.0 | 4.0 | 0.00 | 0.00 | 0.00 | 76 | 1022.7 |
| 20260902065110 | 60 | 297 | 0.0 | 3.0 | 0.00 | 0.00 | 0.00 | 80 | 1022.7 |
| 20260902064608 | 59 | 15 | 0.0 | 2.0 | 0.00 | 0.00 | 0.00 | 84 | 1022.7 |
| 20260902064108 | 58 | 69 | 0.0 | 2.0 | 0.00 | 0.00 | 0.00 | 85 | 1022.7 |
| 20260902063604 | 57 | 67 | 0.0 | 2.0 | 0.00 | 0.00 | 0.00 | 85 | 1022.7 |
| 20260902063105 | 56 | 5 | 0.0 | 0.0 | 0.00 | 0.00 | 0.00 | 87 | 1022.6 |
| 20260902062605 | 55 | 5 | 0.0 | 0.0 | 0.00 | 0.00 | 0.00 | 88 | 1022.6 |
| 20260902062104 | 54 | 5 | 0.0 | 0.0 | 0.00 | 0.00 | 0.00 | 91 | 1022.7 |
| 20260902061603 | 53 | 5 | 0.0 | 0.0 | 0.00 | 0.00 | 0.00 | 93 | 1022.7 |
| 20260902061103 | 52 | 5 | 0.0 | 0.0 | 0.00 | 0.00 | 0.00 | 94 | 1022.6 |
| 20260902060602 | 52 | 5 | 0.0 | 0.0 | 0.00 | 0.00 | 0.00 | 94 | 1022.6 |
| 20260902060104 | 51 | 5 | 0.0 | 0.0 | 0.00 | 0.00 | 0.00 | 94 | 1022.6 |
| 20260902055549 | 51 | 5 | 0.0 | 0.0 | 0.00 | 0.00 | 0.00 | 94 | 1022.5 |
| 20260902055044 | 50 | 5 | 0.0 | 0.0 | 0.00 | 0.00 | 0.00 | 94 | 1022.5 |
| 20260902054544 | 50 | 5 | 0.0 | 0.0 | 0.00 | 0.00 | 0.00 | 94 | 1022.5 |
| 20260902054044 | 50 | 5 | 0.0 | 0.0 | 0.00 | 0.00 | 0.00 | 94 | 1022.4 |
| 20260902053547 | 49 | 5 | 0.0 | 0.0 | 0.00 | 0.00 | 0.00 | 94 | 1022.4 |
| 20260902053044 | 49 | 5 | 0.0 | 0.0 | 0.00 | 0.00 | 0.00 | 93 | 1022.3 |
| 20260902052542 | 48 | 5 | 0.0 | 0.0 | 0.00 | 0.00 | 0.00 | 93 | 1022.3 |
| 20260902052041 | 48 | 5 | 0.0 | 0.0 | 0.00 | 0.00 | 0.00 | 93 | 1022.3 |
| 20260902051538 | 47 | 5 | 0.0 | 0.0 | 0.00 | 0.00 | 0.00 | 92 | 1022.3 |
| 20260902051037 | 47 | 5 | 0.0 | 0.0 | 0.00 | 0.00 | 0.00 | 91 | 1022.3 |
| 20260902050548 | 47 | 5 | 0.0 | 0.0 | 0.00 | 0.00 | 0.00 | 91 | 1022.2 |
| 20260902050038 | 47 | 5 | 0.0 | 0.0 | 0.00 | 0.00 | 0.00 | 91 | 1022.3 |
| 20260902045537 | 47 | 5 | 0.0 | 0.0 | 0.00 | 0.00 | 0.00 | 91 | 1022.2 |
| 20260902045032 | 47 | 5 | 0.0 | 0.0 | 0.00 | 0.00 | 0.00 | 91 | 1022.2 |
| 20260902044534 | 47 | 5 | 0.0 | 0.0 | 0.00 | 0.00 | 0.00 | 90 | 1022.3 |
| 20260902044030 | 47 | 5 | 0.0 | 0.0 | 0.00 | 0.00 | 0.00 | 91 | 1022.3 |
| 20260902043530 | 47 | 5 | 0.0 | 0.0 | 0.00 | 0.00 | 0.00 | 90 | 1022.3 |
| 20260902043030 | 47 | 5 | 0.0 | 0.0 | 0.00 | 0.00 | 0.00 | 90 | 1022.3 |
| 20260902042530 | 47 | 5 | 0.0 | 0.0 | 0.00 | 0.00 | 0.00 | 90 | 1022.3 |
| 20260902042031 | 47 | 5 | 0.0 | 0.0 | 0.00 | 0.00 | 0.00 | 90 | 1022.3 |
| 20260902041530 | 47 | 5 | 0.0 | 0.0 | 0.00 | 0.00 | 0.00 | 89 | 1022.3 |
| 20260902041030 | 47 | 5 | 0.0 | 0.0 | 0.00 | 0.00 | 0.00 | 90 | 1022.3 |
| 20260902040534 | 47 | 5 | 0.0 | 0.0 | 0.00 | 0.00 | 0.00 | 90 | 1022.3 |
| 20260902040027 | 48 | 5 | 0.0 | 0.0 | 0.00 | 0.00 | 0.00 | 90 | 1022.3 |
| 20260902035527 | 48 | 5 | 0.0 | 0.0 | 0.00 | 0.00 | 0.00 | 90 | 1022.3 |
| 20260902035026 | 48 | 5 | 0.0 | 0.0 | 0.00 | 0.00 | 0.00 | 90 | 1022.3 |
| 20260902034526 | 48 | 5 | 0.0 | 0.0 | 0.00 | 0.00 | 0.00 | 90 | 1022.3 |
| 20260902034027 | 48 | 5 | 0.0 | 0.0 | 0.00 | 0.00 | 0.00 | 90 | 1022.3 |
| 20260902033526 | 48 | 5 | 0.0 | 0.0 | 0.00 | 0.00 | 0.00 | 90 | 1022.3 |
| 20260902033029 | 48 | 5 | 0.0 | 0.0 | 0.00 | 0.00 | 0.00 | 90 | 1022.3 |
| 20260902032524 | 48 | 5 | 0.0 | 0.0 | 0.00 | 0.00 | 0.00 | 90 | 1022.3 |
| 20260902032024 | 48 | 5 | 0.0 | 1.0 | 0.00 | 0.00 | 0.00 | 90 | 1022.3 |
| 20260902031518 | 48 | 5 | 0.0 | 1.0 | 0.00 | 0.00 | 0.00 | 90 | 1022.3 |
| 20260902031018 | 48 | 5 | 0.0 | 0.0 | 0.00 | 0.00 | 0.00 | 90 | 1022.4 |
| 20260902030519 | 48 | 5 | 0.0 | 0.0 | 0.00 | 0.00 | 0.00 | 89 | 1022.3 |
| 20260902030018 | 48 | 5 | 0.0 | 0.0 | 0.00 | 0.00 | 0.00 | 89 | 1022.4 |
| 20260902025518 | 48 | 5 | 0.0 | 0.0 | 0.00 | 0.00 | 0.00 | 89 | 1022.4 |
| 20260902025018 | 49 | 5 | 0.0 | 0.0 | 0.00 | 0.00 | 0.00 | 89 | 1022.3 |
| 20260902024518 | 49 | 5 | 0.0 | 0.0 | 0.00 | 0.00 | 0.00 | 89 | 1022.4 |
| 20260902024017 | 49 | 5 | 0.0 | 0.0 | 0.00 | 0.00 | 0.00 | 89 | 1022.4 |
| 20260902023520 | 49 | 5 | 0.0 | 0.0 | 0.00 | 0.00 | 0.00 | 89 | 1022.4 |
| 20260902023015 | 49 | 5 | 0.0 | 0.0 | 0.00 | 0.00 | 0.00 | 89 | 1022.3 |
| 20260902022514 | 49 | 5 | 0.0 | 0.0 | 0.00 | 0.00 | 0.00 | 89 | 1022.3 |
| 20260902022015 | 49 | 5 | 0.0 | 0.0 | 0.00 | 0.00 | 0.00 | 90 | 1022.3 |
| 20260902021514 | 49 | 5 | 0.0 | 0.0 | 0.00 | 0.00 | 0.00 | 90 | 1022.3 |
| 20260902021014 | 49 | 5 | 0.0 | 0.0 | 0.00 | 0.00 | 0.00 | 90 | 1022.3 |
| 20260902020514 | 49 | 5 | 0.0 | 0.0 | 0.00 | 0.00 | 0.00 | 90 | 1022.3 |
| 20260902020014 | 49 | 5 | 0.0 | 0.0 | 0.00 | 0.00 | 0.00 | 90 | 1022.3 |
| 20260902015514 | 49 | 5 | 0.0 | 0.0 | 0.00 | 0.00 | 0.00 | 90 | 1022.3 |
| 20260902015015 | 49 | 5 | 0.0 | 0.0 | 0.00 | 0.00 | 0.00 | 90 | 1022.3 |
| 20260902014509 | 49 | 5 | 0.0 | 0.0 | 0.00 | 0.00 | 0.00 | 90 | 1022.4 |
| 20260902014003 | 49 | 5 | 0.0 | 0.0 | 0.00 | 0.00 | 0.00 | 90 | 1022.4 |
| 20260902013504 | 49 | 5 | 0.0 | 0.0 | 0.00 | 0.00 | 0.00 | 90 | 1022.4 |
| 20260902013003 | 49 | 5 | 0.0 | 0.0 | 0.00 | 0.00 | 0.00 | 90 | 1022.4 |
| 20260902012502 | 49 | 5 | 0.0 | 2.0 | 0.00 | 0.00 | 0.00 | 90 | 1022.4 |
| 20260902012003 | 49 | 5 | 1.0 | 3.0 | 0.00 | 0.00 | 0.00 | 90 | 1022.4 |
| 20260902011502 | 49 | 5 | 1.0 | 3.0 | 0.00 | 0.00 | 0.00 | 90 | 1022.3 |
| 20260902011009 | 49 | 5 | 0.0 | 2.0 | 0.00 | 0.00 | 0.00 | 89 | 1022.3 |
| 20260902010503 | 49 | 5 | 0.0 | 0.0 | 0.00 | 0.00 | 0.00 | 89 | 1022.3 |
| 20260902010002 | 49 | 5 | 0.0 | 0.0 | 0.00 | 0.00 | 0.00 | 89 | 1022.4 |
| 20260902005502 | 49 | 5 | 0.0 | 0.0 | 0.00 | 0.00 | 0.00 | 89 | 1022.4 |
| 20260902005000 | 49 | 5 | 0.0 | 0.0 | 0.00 | 0.00 | 0.00 | 89 | 1022.4 |
| 20260902004500 | 49 | 5 | 0.0 | 2.0 | 0.00 | 0.00 | 0.00 | 88 | 1022.5 |
| 20260902003957 | 49 | 5 | 1.0 | 2.0 | 0.00 | 0.00 | 0.00 | 88 | 1022.5 |
| 20260902003457 | 49 | 5 | 0.0 | 2.0 | 0.00 | 0.00 | 0.00 | 88 | 1022.5 |
| 20260902002958 | 49 | 5 | 0.0 | 0.0 | 0.00 | 0.00 | 0.00 | 88 | 1022.5 |
| 20260902002455 | 49 | 5 | 0.0 | 0.0 | 0.00 | 0.00 | 0.00 | 88 | 1022.5 |
| 20260902001954 | 49 | 5 | 0.0 | 0.0 | 0.00 | 0.00 | 0.00 | 88 | 1022.6 |
| 20260902001453 | 49 | 5 | 0.0 | 0.0 | 0.00 | 0.00 | 0.00 | 88 | 1022.5 |
| 20260902000953 | 49 | 5 | 0.0 | 0.0 | 0.00 | 0.00 | 0.00 | 87 | 1022.5 |
| 20260902000448 | 49 | 5 | 0.0 | 1.0 | 0.00 | 0.00 | 0.00 | 87 | 1022.5 |
| 20260901235943 | 49 | 5 | 1.0 | 3.0 | 0.00 | 0.00 | 0.00 | 87 | 1022.5 |
| 20260901235444 | 49 | 5 | 1.0 | 3.0 | 0.00 | 0.00 | 0.00 | 87 | 1022.5 |
| 20260901234942 | 49 | 5 | 2.0 | 3.0 | 0.00 | 0.00 | 0.00 | 87 | 1022.5 |
| 20260901234438 | 49 | 5 | 1.0 | 2.0 | 0.00 | 0.00 | 0.00 | 87 | 1022.5 |
| 20260901233938 | 49 | 5 | 1.0 | 2.0 | 0.00 | 0.00 | 0.00 | 87 | 1022.5 |
| 20260901233439 | 50 | 5 | 1.0 | 2.0 | 0.00 | 0.00 | 0.00 | 87 | 1022.4 |
| 20260901232936 | 50 | 5 | 0.0 | 2.0 | 0.00 | 0.00 | 0.00 | 87 | 1022.4 |
| 20260901232437 | 50 | 5 | 0.0 | 0.0 | 0.00 | 0.00 | 0.00 | 86 | 1022.5 |
| 20260901231936 | 50 | 5 | 0.0 | 0.0 | 0.00 | 0.00 | 0.00 | 85 | 1022.5 |
| 20260901231439 | 50 | 5 | 0.0 | 0.0 | 0.00 | 0.00 | 0.00 | 86 | 1022.5 |
| 20260901230932 | 50 | 5 | 0.0 | 0.0 | 0.00 | 0.00 | 0.00 | 85 | 1022.5 |